Mission

  • Our mission is to promote and protect San Carlos Airport and its flight operations, and to enhance the safety and spirit of general aviation through participation in local community activities.

Live View of San Carlos Airport (SQL)

San Carlos METAR

  • KSQL 241548Z 13003KT 10SM FEW200 09/07 A3040

    A METAR describes the current weather at an airport. Click here to learn how to read a METAR.


SQL Notams

  • Click here and enter KSQL in the Locations box to read the Notices to Airmen (Notams) about San Carlos Airport.

ASOS from Half Moon Bay Airport (HAF)

Photos at SQL


Chapter

Contact

  • Email: webmaster at sancarlosairport.org
  • Our mailing address:
    San Carlos Airport Association
    P.O. Box 1183
    San Carlos, CA 94070
 

Departure Guidance Document in Airport Office


Printed copies of the KSQL IFR Departure Guidance document are now available in the Airport office.

San Carlos Airport

RUNWAY 30 VFR-to-IFR DEPARTURE GUIDANCE

Click here for 8.5×11 format.

Click here for 5.5×7.5 Jepp format.